EQUISAT (43552 NORAD) Tracking and Keplerian Element Data

This shows tracking and keplerian element data for the satellite.

Feedback or suggestion? Click here.




ElementValue
Catalog43552
NameEQUISAT
Epoch Orbit4398
Epoch Day111.8603531
Epoch Year2019
RAAN273.3447
Inclination51.6388
Eccentricity0.0006086
Argument of Perigee285.9031
Mean Anonmoly74.1292
Mean Motion15.60335446
Decay Rate0.00012166
L11 43552U 98067PA 19111.86035310 .00012166 00000-0 15163-3 0 9993
L22 43552 51.6388 273.3447 0006086 285.9031 74.1292 15.60335446 43986

Live tracking and technical data element details for EQUISAT (NORAD 43552). EQUISAT can be tracked NOW for your location showing map with azimuth and elevation plus other details from your city location.

Track the satellite on the map from your city or location and see movement details for azimuth, elevation, latitude, longitude, range, height, and movement on the map or in text.







IsCatalogInMostPopularTable: catalog: 43552, numindb: 126
Update: records affected: 1



GetName: 43552 EQUISAT

Hit Count: updated at: Tue, 23 Apr 2019 19:49:49 GMT